Flag for United Kingdom Weather past 2 weeks in Swindon, England, United Kingdom

Now
46 °F

Drizzle. Broken clouds.


Feels Like: 42 °F
Forecast: 42 / 52 °F
Wind: 8 mph from Southwest

Location: Brize Norton

Current Time: Mar 29, 2015 at 8:52:47 AM

Latest Report: Mar 29, 2015 at 7:50 AM


Visibility: 2 mi

Pressure: 29.50 "Hg

Humidity: 100%

Dew point: 46 °F

Location of SwindonLocation

Historic Weather in Swindon — Graph

°F

Swindon temperature yesterday

Maximum temperature yesterday: 57 °F (at 10:50 AM)
Minimum temperature yesterday: 46 °F (at 12:50 AM)
Average temperature yesterday: 51 °F

Past Weeks' High & Low Weather Summary

 TemperatureHumidityPressure
High57 °F (Mar 28, 10:50 AM)100% (Mar 16, 10:50 PM)30.54 "Hg (Mar 16, 10:50 PM)
Low30 °F (Mar 25, 5:50 AM)43% (Mar 26, 4:50 PM)29.50 "Hg (Mar 26, 6:50 AM)
Average43 °F78%30.15 "Hg
* Reported Mar 14 6:50 AM — Mar 29 7:50 AM, Swindon, Weather by CustomWeather, © 2015

Note: Actual official high and low records may vary slightly from our data, if they occured in-between our weather recording intervals... More about our weather records

Advertising

Swindon weather history for previous 24 hours

 ConditionsComfort  
Time TempWeatherWind HumidityBarometerVisibility
7:50 AM
Sun, Mar 29
46 °FDrizzle. Broken clouds.8 mph100%29.50 "Hg2 mi
6:50 AM48 °FDrizzle. Mostly cloudy.6 mph87%29.56 "Hg5 mi
5:50 AM48 °FPartly cloudy.12 mph87%29.59 "HgN/A
4:50 AM48 °FPassing clouds.12 mph82%29.62 "HgN/A
3:50 AM48 °FClear.9 mph87%29.62 "Hg10 mi
2:50 AM48 °FPartly cloudy.13 mph87%29.65 "HgN/A
12:50 AM50 °FPassing clouds.15 mph82%29.68 "Hg6 mi
11:50 PM
Sat, Mar 28
48 °FPassing clouds.15 mph87%29.68 "Hg6 mi
10:50 PM48 °FPassing clouds.16 mph82%29.68 "HgN/A
9:50 PM48 °FPassing clouds.13 mph82%29.68 "HgN/A
8:50 PM48 °FPartly cloudy.13 mph87%29.71 "HgN/A
7:50 PM50 °FPartly cloudy.12 mph82%29.71 "HgN/A
6:50 PM52 °FPassing clouds.16 mph82%29.74 "HgN/A
5:50 PM52 °FLight rain. Partly sunny.13 mph82%29.71 "HgN/A
4:50 PM54 °FBroken clouds.13 mph77%29.71 "HgN/A
3:50 PM54 °FPartly sunny.14 mph77%29.71 "HgN/A
2:50 PM54 °FMixture of precip. Partly sunny.14 mph88%29.74 "Hg4 mi
1:50 PM54 °FDrizzle. Mostly cloudy.12 mph94%29.74 "Hg2 mi
12:50 PM54 °FLight rain. Partly sunny.14 mph94%29.77 "HgN/A
11:50 AM54 °FDrizzle. Broken clouds.12 mph94%29.80 "Hg2 mi
10:50 AM57 °FSprinkles. Partly sunny.13 mph72%29.83 "HgN/A
9:50 AM55 °FPartly sunny.14 mph82%29.83 "HgN/A
8:50 AM54 °FPartly sunny.9 mph88%29.86 "HgN/A
Weather by CustomWeather, © 2015

See weather overviewHow to use our weather pages